Time,TemperatureF,DewpointF,PressureIn,WindDirection,WindDirectionDegrees,WindSpeedMPH,WindSpeedGustMPH,Humidity,HourlyPrecipIn,Conditions,Clouds,dailyrainin,SoftwareType,DateUTC
2013-10-18 00:08:00,47.4,40.0,29.87,South,179,1.0,4.0,76,0.00,,,0.04,weatherlink.com 1.10,2013-10-18 05:08:00,
2013-10-18 00:23:00,47.7,40.0,29.87,South,175,2.0,4.0,75,0.00,,,0.04,weatherlink.com 1.10,2013-10-18 05:23:00,
2013-10-18 00:38:00,48.1,40.0,29.87,South,188,2.0,6.0,74,0.00,,,0.04,weatherlink.com 1.10,2013-10-18 05:38:00,
2013-10-18 00:53:00,48.3,40.0,29.87,South,180,3.0,7.0,74,0.00,,,0.04,weatherlink.com 1.10,2013-10-18 05:53:00,
2013-10-18 01:08:00,48.0,40.0,29.88,South,180,2.0,7.0,75,0.00,,,0.04,weatherlink.com 1.10,2013-10-18 06:08:00,
2013-10-18 01:23:00,47.4,41.0,29.87,South,188,2.0,7.0,77,0.00,,,0.04,weatherlink.com 1.10,2013-10-18 06:23:00,
2013-10-18 01:38:00,47.5,40.0,29.87,SW,226,3.0,9.0,76,0.00,,,0.04,weatherlink.com 1.10,2013-10-18 06:38:00,
2013-10-18 01:53:00,47.9,40.0,29.88,SW,220,1.0,7.0,75,0.00,,,0.04,weatherlink.com 1.10,2013-10-18 06:53:00,
2013-10-18 02:08:00,47.9,40.0,29.88,SW,230,4.0,10.0,75,0.00,,,0.04,weatherlink.com 1.10,2013-10-18 07:08:00,
2013-10-18 02:23:00,47.2,40.0,29.89,SW,232,1.0,8.0,76,0.00,,,0.04,weatherlink.com 1.10,2013-10-18 07:23:00,
2013-10-18 02:38:00,46.5,40.0,29.89,WSW,254,3.0,7.0,77,0.00,,,0.04,weatherlink.com 1.10,2013-10-18 07:38:00,
2013-10-18 02:53:00,46.1,40.0,29.89,West,271,3.0,9.0,78,0.00,,,0.04,weatherlink.com 1.10,2013-10-18 07:53:00,
2013-10-18 03:08:00,45.6,39.0,29.89,SW,221,1.0,8.0,79,0.00,,,0.04,weatherlink.com 1.10,2013-10-18 08:08:00,
2013-10-18 03:23:00,45.1,39.0,29.89,WSW,242,4.0,7.0,80,0.00,,,0.04,weatherlink.com 1.10,2013-10-18 08:23:00,
2013-10-18 03:38:00,44.6,39.0,29.89,SW,236,6.0,6.0,81,0.00,,,0.04,weatherlink.com 1.10,2013-10-18 08:38:00,
2013-10-18 03:53:00,44.3,39.0,29.90,NW,312,2.0,7.0,82,0.00,,,0.04,weatherlink.com 1.10,2013-10-18 08:53:00,
2013-10-18 04:09:00,44.1,40.0,29.90,West,278,3.0,7.0,84,0.00,,,0.04,weatherlink.com 1.10,2013-10-18 09:09:00,
2013-10-18 04:24:00,43.8,40.0,29.90,WNW,300,2.0,7.0,85,0.00,,,0.04,weatherlink.com 1.10,2013-10-18 09:24:00,
2013-10-18 04:39:00,43.3,39.0,29.90,WNW,283,1.0,8.0,86,0.00,,,0.04,weatherlink.com 1.10,2013-10-18 09:39:00,
2013-10-18 04:54:00,42.9,39.0,29.90,WNW,286,4.0,6.0,87,0.00,,,0.04,weatherlink.com 1.10,2013-10-18 09:54:00,
2013-10-18 05:09:00,42.8,40.0,29.91,West,271,4.0,8.0,89,0.00,,,0.04,weatherlink.com 1.10,2013-10-18 10:09:00,
2013-10-18 05:24:00,43.0,40.0,29.91,WNW,284,4.0,8.0,89,0.00,,,0.04,weatherlink.com 1.10,2013-10-18 10:24:00,
2013-10-18 05:39:00,42.6,40.0,29.91,WNW,297,1.0,6.0,90,0.00,,,0.04,weatherlink.com 1.10,2013-10-18 10:39:00,
2013-10-18 05:54:00,42.6,40.0,29.91,WNW,302,7.0,9.0,91,0.00,,,0.04,weatherlink.com 1.10,2013-10-18 10:54:00,
2013-10-18 06:09:00,42.7,40.0,29.92,WSW,252,3.0,7.0,91,0.00,,,0.04,weatherlink.com 1.10,2013-10-18 11:09:00,
2013-10-18 06:24:00,42.4,40.0,29.93,West,270,4.0,11.0,92,0.00,,,0.00,weatherlink.com 1.10,2013-10-18 11:24:00,
2013-10-18 06:39:00,43.3,41.0,29.94,North,360,5.0,11.0,92,0.00,,,0.00,weatherlink.com 1.10,2013-10-18 11:39:00,
2013-10-18 06:54:00,43.7,41.0,29.95,NW,315,5.0,13.0,90,0.00,,,0.00,weatherlink.com 1.10,2013-10-18 11:54:00,
2013-10-18 07:09:00,44.2,42.0,29.95,NNW,328,6.0,13.0,90,0.00,,,0.00,weatherlink.com 1.10,2013-10-18 12:09:00,
2013-10-18 07:24:00,44.5,42.0,29.96,WNW,303,2.0,10.0,89,0.00,,,0.00,weatherlink.com 1.10,2013-10-18 12:24:00,
2013-10-18 07:39:00,44.7,42.0,29.96,WNW,302,5.0,9.0,90,0.00,,,0.00,weatherlink.com 1.10,2013-10-18 12:39:00,
2013-10-18 07:54:00,44.6,42.0,29.96,WNW,294,6.0,11.0,89,0.00,,,0.00,weatherlink.com 1.10,2013-10-18 12:54:00,
2013-10-18 08:09:00,44.7,41.0,29.97,NW,313,6.0,15.0,88,0.00,,,0.00,weatherlink.com 1.10,2013-10-18 13:09:00,
2013-10-18 08:24:00,44.6,41.0,29.98,NW,304,3.0,10.0,87,0.00,,,0.00,weatherlink.com 1.10,2013-10-18 13:24:00,
2013-10-18 08:39:00,44.7,41.0,29.99,WNW,295,5.0,15.0,87,0.00,,,0.00,weatherlink.com 1.10,2013-10-18 13:39:00,
2013-10-18 08:54:00,44.9,40.0,29.99,NW,320,8.0,20.0,84,0.00,,,0.00,weatherlink.com 1.10,2013-10-18 13:54:00,
2013-10-18 09:09:00,45.0,41.0,30.00,WNW,286,6.0,13.0,84,0.00,,,0.00,weatherlink.com 1.10,2013-10-18 14:09:00,
2013-10-18 09:24:00,45.0,40.0,30.00,NW,313,5.0,13.0,83,0.00,,,0.00,weatherlink.com 1.10,2013-10-18 14:24:00,
2013-10-18 09:39:00,44.9,39.0,30.01,West,270,10.0,15.0,81,0.00,,,0.00,weatherlink.com 1.10,2013-10-18 14:39:00,
2013-10-18 09:54:00,45.2,39.0,30.01,WNW,287,1.0,14.0,80,0.00,,,0.00,weatherlink.com 1.10,2013-10-18 14:54:00,
2013-10-18 10:09:00,45.5,39.0,30.02,NW,319,7.0,17.0,78,0.00,,,0.00,weatherlink.com 1.10,2013-10-18 15:09:00,
2013-10-18 10:24:00,45.8,39.0,30.02,WNW,286,3.0,14.0,78,0.00,,,0.00,weatherlink.com 1.10,2013-10-18 15:24:00,
2013-10-18 10:39:00,46.1,39.0,30.01,NW,312,11.0,15.0,77,0.00,,,0.00,weatherlink.com 1.10,2013-10-18 15:39:00,
2013-10-18 10:54:00,46.6,39.0,30.01,WNW,284,7.0,15.0,75,0.00,,,0.00,weatherlink.com 1.10,2013-10-18 15:54:00,
2013-10-18 11:10:00,47.6,40.0,30.01,NW,311,7.0,16.0,74,0.00,,,0.00,weatherlink.com 1.10,2013-10-18 16:10:00,
2013-10-18 11:25:00,48.1,39.0,30.02,NW,306,7.0,14.0,71,0.00,,,0.00,weatherlink.com 1.10,2013-10-18 16:25:00,
2013-10-18 11:40:00,48.4,39.0,30.01,NW,307,3.0,12.0,70,0.00,,,0.00,weatherlink.com 1.10,2013-10-18 16:40:00,
2013-10-18 11:55:00,48.8,39.0,30.01,NW,325,8.0,15.0,69,0.00,,,0.00,weatherlink.com 1.10,2013-10-18 16:55:00,
2013-10-18 12:10:00,49.1,38.0,30.01,WNW,298,10.0,14.0,67,0.00,,,0.00,weatherlink.com 1.10,2013-10-18 17:10:00,
2013-10-18 12:25:00,49.0,38.0,30.01,NW,326,7.0,14.0,67,0.00,,,0.00,weatherlink.com 1.10,2013-10-18 17:25:00,
2013-10-18 12:40:00,49.1,38.0,30.01,West,273,4.0,15.0,67,0.00,,,0.00,weatherlink.com 1.10,2013-10-18 17:40:00,
2013-10-18 12:55:00,50.0,38.0,30.00,NW,321,3.0,13.0,64,0.00,,,0.00,weatherlink.com 1.10,2013-10-18 17:55:00,
2013-10-18 13:10:00,50.2,39.0,30.00,NW,317,0.0,16.0,65,0.00,,,0.00,weatherlink.com 1.10,2013-10-18 18:10:00,
2013-10-18 13:25:00,50.2,39.0,29.99,NW,326,2.0,11.0,65,0.00,,,0.00,weatherlink.com 1.10,2013-10-18 18:25:00,
2013-10-18 13:40:00,51.6,38.0,29.98,WNW,284,9.0,15.0,61,0.00,,,0.00,weatherlink.com 1.10,2013-10-18 18:40:00,
2013-10-18 13:55:00,52.6,38.0,29.98,NW,315,5.0,11.0,59,0.00,,,0.00,weatherlink.com 1.10,2013-10-18 18:55:00,
2013-10-18 14:10:00,53.1,38.0,29.98,NNW,330,7.0,11.0,58,0.00,,,0.00,weatherlink.com 1.10,2013-10-18 19:10:00,
2013-10-18 14:25:00,55.1,39.0,29.97,West,274,7.0,13.0,54,0.00,,,0.00,weatherlink.com 1.10,2013-10-18 19:25:00,
2013-10-18 14:40:00,54.4,38.0,29.98,WNW,288,5.0,14.0,54,0.00,,,0.00,weatherlink.com 1.10,2013-10-18 19:40:00,
2013-10-18 14:55:00,55.2,38.0,29.98,WNW,301,7.0,15.0,53,0.00,,,0.00,weatherlink.com 1.10,2013-10-18 19:55:00,
2013-10-18 15:10:00,53.8,37.0,29.98,NW,304,4.0,12.0,54,0.00,,,0.00,weatherlink.com 1.10,2013-10-18 20:10:00,
2013-10-18 15:25:00,53.7,37.0,29.98,NW,313,7.0,11.0,53,0.00,,,0.00,weatherlink.com 1.10,2013-10-18 20:25:00,
2013-10-18 15:40:00,53.5,37.0,29.98,WNW,284,4.0,14.0,55,0.00,,,0.00,weatherlink.com 1.10,2013-10-18 20:40:00,
2013-10-18 15:55:00,52.9,37.0,29.98,NW,311,4.0,15.0,56,0.00,,,0.00,weatherlink.com 1.10,2013-10-18 20:55:00,
2013-10-18 16:10:00,52.1,37.0,29.98,NW,309,9.0,15.0,56,0.00,,,0.00,weatherlink.com 1.10,2013-10-18 21:10:00,
2013-10-18 16:25:00,51.9,37.0,29.98,WNW,303,4.0,12.0,58,0.00,,,0.00,weatherlink.com 1.10,2013-10-18 21:25:00,
2013-10-18 16:40:00,51.5,37.0,29.98,NNW,336,2.0,9.0,59,0.00,,,0.00,weatherlink.com 1.10,2013-10-18 21:40:00,
2013-10-18 16:55:00,51.1,37.0,29.98,NNW,333,3.0,11.0,60,0.00,,,0.00,weatherlink.com 1.10,2013-10-18 21:55:00,
2013-10-18 17:10:00,51.0,37.0,29.99,NW,313,2.0,12.0,60,0.00,,,0.00,weatherlink.com 1.10,2013-10-18 22:10:00,
2013-10-18 17:25:00,50.7,37.0,29.99,NW,311,3.0,12.0,60,0.00,,,0.00,weatherlink.com 1.10,2013-10-18 22:25:00,
2013-10-18 17:40:00,50.5,38.0,29.99,NW,311,3.0,7.0,62,0.00,,,0.00,weatherlink.com 1.10,2013-10-18 22:40:00,
2013-10-18 17:55:00,50.3,38.0,29.99,NW,311,0.0,6.0,63,0.00,,,0.00,weatherlink.com 1.10,2013-10-18 22:55:00,
2013-10-18 18:10:00,49.9,38.0,30.00,NW,315,1.0,6.0,64,0.00,,,0.00,weatherlink.com 1.10,2013-10-18 23:10:00,
2013-10-18 18:25:00,49.6,38.0,30.00,NW,317,3.0,5.0,65,0.00,,,0.00,weatherlink.com 1.10,2013-10-18 23:25:00,
2013-10-18 18:40:00,49.1,38.0,30.00,NNW,328,5.0,9.0,67,0.00,,,0.00,weatherlink.com 1.10,2013-10-18 23:40:00,
2013-10-18 18:55:00,48.8,39.0,30.01,NW,316,0.0,4.0,68,0.00,,,0.00,weatherlink.com 1.10,2013-10-18 23:55:00,
2013-10-18 19:10:00,48.4,39.0,30.00,NW,313,1.0,6.0,69,0.00,,,0.00,weatherlink.com 1.10,2013-10-19 00:10:00,
2013-10-18 19:25:00,48.1,39.0,30.00,NW,309,0.0,5.0,70,0.00,,,0.00,weatherlink.com 1.10,2013-10-19 00:25:00,
2013-10-18 19:40:00,47.9,39.0,30.00,NW,309,0.0,3.0,70,0.00,,,0.00,weatherlink.com 1.10,2013-10-19 00:40:00,
2013-10-18 19:55:00,47.9,39.0,30.00,NW,309,0.0,2.0,71,0.00,,,0.00,weatherlink.com 1.10,2013-10-19 00:55:00,
2013-10-18 20:10:00,47.8,39.0,30.00,NW,309,3.0,3.0,72,0.00,,,0.00,weatherlink.com 1.10,2013-10-19 01:10:00,
2013-10-18 20:25:00,47.5,39.0,30.01,NW,309,2.0,4.0,72,0.00,,,0.00,weatherlink.com 1.10,2013-10-19 01:25:00,
2013-10-18 20:40:00,47.4,39.0,30.00,NW,309,1.0,3.0,73,0.00,,,0.00,weatherlink.com 1.10,2013-10-19 01:40:00,
2013-10-18 20:55:00,47.2,39.0,30.00,NW,309,1.0,3.0,73,0.00,,,0.00,weatherlink.com 1.10,2013-10-19 01:55:00,
2013-10-18 21:10:00,47.1,39.0,30.00,NW,309,0.0,4.0,74,0.00,,,0.00,weatherlink.com 1.10,2013-10-19 02:10:00,
2013-10-18 21:25:00,47.0,39.0,30.01,WNW,283,2.0,5.0,74,0.00,,,0.00,weatherlink.com 1.10,2013-10-19 02:25:00,
2013-10-18 21:40:00,46.9,40.0,30.01,West,267,1.0,4.0,76,0.00,,,0.00,weatherlink.com 1.10,2013-10-19 02:40:00,
2013-10-18 21:55:00,46.4,40.0,30.01,SSW,200,1.0,6.0,79,0.00,,,0.00,weatherlink.com 1.10,2013-10-19 02:55:00,
2013-10-18 22:10:00,46.1,41.0,30.01,SW,218,4.0,7.0,82,0.00,,,0.00,weatherlink.com 1.10,2013-10-19 03:10:00,
2013-10-18 22:25:00,45.6,41.0,30.01,SSE,167,4.0,11.0,84,0.00,,,0.00,weatherlink.com 1.10,2013-10-19 03:25:00,
2013-10-18 22:40:00,45.0,41.0,30.00,SSW,200,7.0,10.0,85,0.00,,,0.00,weatherlink.com 1.10,2013-10-19 03:40:00,
2013-10-18 22:55:00,44.5,41.0,30.00,SW,234,2.0,10.0,86,0.00,,,0.00,weatherlink.com 1.10,2013-10-19 03:55:00,
2013-10-18 23:10:00,44.1,41.0,30.00,WNW,294,2.0,10.0,88,0.00,,,0.00,weatherlink.com 1.10,2013-10-19 04:10:00,
2013-10-18 23:25:00,43.8,41.0,30.00,WSW,240,4.0,10.0,88,0.00,,,0.00,weatherlink.com 1.10,2013-10-19 04:25:00,
2013-10-18 23:40:00,43.6,41.0,30.00,West,273,0.0,9.0,89,0.00,,,0.00,weatherlink.com 1.10,2013-10-19 04:40:00,
2013-10-18 23:55:00,43.3,40.0,29.99,NW,306,4.0,8.0,89,0.00,,,0.00,weatherlink.com 1.10,2013-10-19 04:55:00,